Find Starlink 31497

NORAD ID: 60592 Int'l Des: 2024-150 Owner: SPXS Country: US Constellation: starlink operational
LEOCIRCULAR

現在のビュー

3D地球を読み込み中...

About Starlink 31497

Starlink 31497 (NORAD 60592) is a starlink constellation satellite (v2 mini) launched Aug 20, 2024 by SPXS of US. It operates in LEO, CIRCULAR orbit with a mass of 730.00 kg.

次回通過

Passes for default location (London). Set your location on the main map for personalized predictions.

高度履歴

Loading altitude history...

軌道要素

1 60592U 24150K 26264.83286782 -.00000107 00000-0 79663-5 0 9993
2 60592 53.1587 111.5735 0001329 97.0520 263.0634 15.34385170118139
Epoch: Sep 21, 2026 • Age: 25 hours

現在のステータス

高度 472.1 km
遠地点 / 近地点 N/A
速度 7.63 km/s
衛星直下点 -28.72°S, 128.28°E
打ち上げ日 Aug 20, 2024
運用期間 2 years
タイプ internet

技術仕様

分類 Payload
質量 730.00 kg
乾燥質量 700.00 kg
長さ 0.30 m
スパン 29.00 m
形状 ? Box + pan
製造者 SPXS
バスタイプ Starlink V2M
フェーズステータス In Orbit
所有者/国 SPXS/US

Most Searched